TimeMST,TemperatureF,Dew PointF,Humidity,Sea Level PressureIn,VisibilityMPH,Wind Direction,Wind SpeedMPH,Gust SpeedMPH,PrecipitationIn,Events,Conditions,WindDirDegrees,DateUTC
12:53 AM,19.0,12.9,77,30.31,10.0,NE,5.8,-,N/A,,Clear,40,2012-12-04 07:53:00
1:53 AM,18.0,12.0,78,30.32,10.0,NE,4.6,-,N/A,,Clear,50,2012-12-04 08:53:00
2:53 AM,19.0,12.0,74,30.33,10.0,ENE,8.1,-,N/A,,Clear,70,2012-12-04 09:53:00
3:53 AM,19.9,12.0,71,30.32,10.0,ENE,5.8,-,N/A,,Clear,60,2012-12-04 10:53:00
4:53 AM,19.9,12.0,71,30.34,10.0,East,3.5,-,N/A,,Clear,100,2012-12-04 11:53:00
5:53 AM,21.9,12.9,68,30.41,10.0,ENE,4.6,-,N/A,,Clear,60,2012-12-04 12:53:00
6:53 AM,21.9,12.9,68,30.43,10.0,NNE,5.8,-,N/A,,Clear,20,2012-12-04 13:53:00
7:53 AM,19.9,12.9,74,30.50,10.0,Calm,Calm,-,N/A,,Clear,0,2012-12-04 14:53:00
8:53 AM,32.0,16.0,52,30.49,10.0,East,4.6,-,N/A,,Clear,80,2012-12-04 15:53:00
9:53 AM,41.0,14.0,33,30.46,10.0,Calm,Calm,-,N/A,,Clear,0,2012-12-04 16:53:00
10:53 AM,45.0,10.9,25,30.45,10.0,Calm,Calm,-,N/A,,Clear,0,2012-12-04 17:53:00
11:53 AM,50.0,12.0,22,30.41,10.0,Calm,Calm,-,N/A,,Clear,0,2012-12-04 18:53:00
12:53 PM,53.1,19.9,27,30.38,10.0,SSW,4.6,-,N/A,,Clear,210,2012-12-04 19:53:00
1:53 PM,52.0,18.0,26,30.38,10.0,SSW,12.7,-,N/A,,Clear,210,2012-12-04 20:53:00
2:53 PM,54.0,18.0,24,30.36,10.0,SSW,8.1,-,N/A,,Clear,200,2012-12-04 21:53:00
3:53 PM,51.1,18.0,27,30.37,10.0,SSW,9.2,-,N/A,,Clear,210,2012-12-04 22:53:00
4:53 PM,46.0,18.0,33,30.39,10.0,West,4.6,-,N/A,,Clear,260,2012-12-04 23:53:00
5:53 PM,36.0,18.0,48,30.41,10.0,SSE,4.6,-,N/A,,Clear,150,2012-12-05 00:53:00
6:53 PM,32.0,17.1,54,30.46,10.0,Calm,Calm,-,N/A,,Clear,0,2012-12-05 01:53:00
7:53 PM,30.9,16.0,54,30.48,10.0,NE,8.1,-,N/A,,Clear,50,2012-12-05 02:53:00
8:53 PM,32.0,16.0,52,30.43,10.0,ENE,10.4,-,N/A,,Clear,60,2012-12-05 03:53:00
9:53 PM,30.9,17.1,57,30.38,10.0,Calm,Calm,-,N/A,,Clear,0,2012-12-05 04:53:00
10:53 PM,28.9,17.1,61,30.35,10.0,Calm,Calm,-,N/A,,Clear,0,2012-12-05 05:53:00
11:53 PM,27.0,16.0,63,30.33,10.0,ENE,3.5,-,N/A,,Clear,70,2012-12-05 06:53:00